GEFSSE_prec_meanprecacc_312.txt.gz
Total_Precipitation_Accumulation
0.24 0.32 0.69 0.91 0.90 0.82 0.78 0.72 0.65 0.62 0.61 0.63 0.63 0.58 0.53 0.51 0.50 0.46 0.47 0.49 0.61 0.75 0.84 0.90 0.96 1.00 0.98 0.85 0.62 0.40 0.29 0.27 0.23 0.19 0.20 0.23 0.28 0.33 0.34 0.34 0.35 0.43 0.56
0.20 0.33 0.67 0.89 0.91 0.79 0.72 0.70 0.67 0.64 0.64 0.67 0.75 0.71 0.62 0.59 0.61 0.63 0.62 0.62 0.71 0.82 0.92 0.97 1.02 1.02 0.93 0.73 0.50 0.32 0.18 0.13 0.09 0.06 0.05 0.08 0.17 0.28 0.30 0.27 0.28 0.44 0.54
0.25 0.39 0.65 0.89 0.89 0.82 0.74 0.68 0.66 0.65 0.69 0.74 0.78 0.80 0.75 0.71 0.70 0.77 0.79 0.76 0.78 0.83 0.93 0.99 0.96 0.94 0.81 0.58 0.39 0.28 0.18 0.12 0.08 0.06 0.08 0.15 0.24 0.38 0.36 0.31 0.39 0.49 0.54
0.35 0.44 0.63 0.89 0.97 0.92 0.83 0.74 0.73 0.74 0.75 0.84 0.88 0.90 0.94 0.88 0.84 0.84 0.84 0.80 0.78 0.78 0.82 0.81 0.69 0.64 0.57 0.45 0.36 0.26 0.19 0.12 0.09 0.08 0.15 0.23 0.33 0.55 0.54 0.46 0.47 0.49 0.51
0.51 0.54 0.76 1.01 1.11 1.10 0.99 0.89 0.87 0.87 0.86 0.90 0.98 1.07 1.11 1.09 0.98 0.92 0.85 0.80 0.74 0.72 0.61 0.54 0.50 0.45 0.40 0.35 0.31 0.24 0.16 0.11 0.08 0.09 0.14 0.24 0.43 0.74 0.61 0.52 0.51 0.53 0.52
0.66 0.73 0.97 1.23 1.36 1.39 1.23 1.12 1.06 1.02 0.99 1.00 1.00 1.06 1.17 1.25 1.19 1.04 0.85 0.70 0.63 0.60 0.53 0.43 0.39 0.39 0.35 0.32 0.27 0.21 0.16 0.11 0.07 0.09 0.14 0.22 0.41 0.73 0.60 0.54 0.49 0.50 0.52
0.72 0.85 1.08 1.41 1.56 1.63 1.54 1.42 1.35 1.28 1.21 1.14 1.10 1.12 1.19 1.23 1.14 1.02 0.80 0.64 0.58 0.57 0.55 0.46 0.42 0.39 0.37 0.35 0.28 0.21 0.15 0.10 0.08 0.10 0.14 0.23 0.45 0.73 0.65 0.56 0.50 0.50 0.50
0.77 0.98 1.23 1.56 1.65 1.72 1.74 1.66 1.60 1.54 1.47 1.37 1.28 1.28 1.28 1.24 1.11 0.97 0.83 0.70 0.62 0.60 0.60 0.53 0.48 0.43 0.41 0.37 0.32 0.24 0.16 0.10 0.08 0.09 0.13 0.20 0.43 0.62 0.57 0.48 0.46 0.47 0.47
1.04 1.21 1.43 1.67 1.79 1.89 1.85 1.77 1.75 1.68 1.61 1.50 1.41 1.33 1.23 1.16 1.09 0.98 0.84 0.75 0.69 0.65 0.67 0.59 0.53 0.47 0.44 0.41 0.37 0.25 0.14 0.10 0.09 0.10 0.11 0.18 0.36 0.52 0.48 0.45 0.46 0.47 0.48
1.46 1.59 1.72 1.81 1.84 1.88 1.88 1.81 1.82 1.80 1.76 1.71 1.58 1.32 1.14 1.05 1.07 0.99 0.80 0.75 0.69 0.66 0.66 0.62 0.56 0.50 0.44 0.39 0.33 0.23 0.16 0.14 0.11 0.10 0.13 0.18 0.33 0.47 0.49 0.49 0.47 0.47 0.48
1.99 1.94 2.02 2.05 2.06 2.05 2.01 1.91 1.98 1.98 1.94 1.83 1.71 1.42 1.20 1.14 1.07 0.98 0.79 0.68 0.65 0.63 0.63 0.64 0.58 0.53 0.44 0.35 0.29 0.25 0.23 0.19 0.14 0.16 0.18 0.25 0.40 0.52 0.57 0.58 0.50 0.49 0.49
2.22 2.17 2.15 2.17 2.11 2.15 2.11 2.12 2.21 2.13 2.06 1.94 1.66 1.51 1.39 1.26 1.12 0.93 0.86 0.75 0.69 0.63 0.65 0.69 0.64 0.56 0.45 0.36 0.29 0.27 0.25 0.23 0.21 0.19 0.21 0.33 0.53 0.65 0.65 0.60 0.55 0.54 0.51
2.33 2.39 2.38 2.38 2.31 2.22 2.25 2.17 2.24 2.25 2.17 2.09 1.87 1.69 1.57 1.52 1.37 1.18 1.02 1.01 0.90 0.75 0.72 0.70 0.70 0.54 0.39 0.32 0.29 0.26 0.24 0.25 0.25 0.24 0.23 0.31 0.52 0.67 0.70 0.69 0.65 0.62 0.58
2.63 2.62 2.65 2.61 2.58 2.41 2.29 2.23 2.28 2.29 2.20 2.08 1.87 1.76 1.68 1.53 1.40 1.24 1.02 0.96 0.94 0.76 0.71 0.66 0.59 0.50 0.43 0.35 0.30 0.28 0.27 0.28 0.26 0.29 0.28 0.27 0.42 0.60 0.70 0.76 0.75 0.69 0.67
2.88 2.92 2.91 2.79 2.74 2.68 2.49 2.31 2.32 2.42 2.37 2.21 2.04 1.84 1.68 1.52 1.34 1.26 1.15 1.05 0.99 0.86 0.74 0.70 0.60 0.56 0.51 0.44 0.36 0.30 0.27 0.27 0.27 0.28 0.27 0.27 0.32 0.47 0.65 0.78 0.87 0.88 0.86
3.05 3.21 3.23 3.09 2.89 2.82 2.65 2.36 2.27 2.45 2.55 2.57 2.27 1.96 1.89 1.76 1.58 1.42 1.30 1.20 1.09 0.99 0.88 0.80 0.70 0.67 0.63 0.56 0.47 0.37 0.33 0.32 0.32 0.31 0.28 0.27 0.28 0.33 0.51 0.72 0.90 0.96 0.98
2.94 3.25 3.41 3.36 3.24 3.00 2.91 2.70 2.39 2.50 2.62 2.65 2.52 2.25 2.10 1.99 1.84 1.71 1.54 1.36 1.15 1.08 1.04 1.02 0.98 0.90 0.80 0.68 0.57 0.49 0.41 0.37 0.35 0.32 0.29 0.28 0.27 0.28 0.40 0.58 0.75 0.87 0.92
2.93 3.10 3.40 3.47 3.49 3.35 3.14 2.97 2.64 2.52 2.59 2.57 2.44 2.36 2.24 2.10 1.97 1.88 1.68 1.52 1.39 1.31 1.24 1.19 1.17 1.11 0.97 0.80 0.67 0.62 0.53 0.44 0.38 0.38 0.35 0.31 0.29 0.27 0.32 0.44 0.53 0.64 0.78
2.89 3.04 3.30 3.46 3.55 3.67 3.57 3.44 3.09 2.74 2.69 2.66 2.46 2.27 2.23 2.17 2.05 1.95 1.77 1.61 1.56 1.48 1.39 1.29 1.26 1.22 1.15 1.01 0.87 0.79 0.73 0.62 0.55 0.52 0.50 0.45 0.41 0.37 0.36 0.42 0.46 0.47 0.57
3.13 3.26 3.35 3.55 3.79 4.02 4.13 3.98 3.75 3.26 2.90 2.77 2.60 2.35 2.18 2.14 2.08 1.99 1.87 1.74 1.65 1.62 1.56 1.43 1.31 1.25 1.21 1.20 1.14 1.02 0.93 0.85 0.73 0.66 0.61 0.57 0.54 0.50 0.48 0.50 0.47 0.44 0.46
3.22 3.42 3.53 3.56 3.80 4.15 4.11 3.85 3.63 3.37 3.10 2.82 2.69 2.57 2.35 2.22 2.11 2.00 1.85 1.85 1.78 1.65 1.60 1.56 1.53 1.49 1.41 1.39 1.45 1.34 1.14 1.03 0.94 0.79 0.73 0.67 0.63 0.61 0.59 0.60 0.56 0.51 0.50
2.97 3.35 3.43 3.62 3.85 4.10 4.03 3.89 3.77 3.70 3.49 3.19 3.00 2.72 2.53 2.38 2.23 2.10 1.94 1.81 1.80 1.75 1.64 1.61 1.61 1.67 1.71 1.70 1.70 1.70 1.54 1.34 1.07 0.86 0.81 0.77 0.73 0.73 0.75 0.73 0.69 0.64 0.60
2.46 2.95 3.18 3.33 3.67 3.92 4.10 4.41 4.40 4.20 3.84 3.34 3.02 2.81 2.63 2.60 2.47 2.26 2.17 2.03 1.86 1.82 1.71 1.59 1.50 1.50 1.60 1.73 1.78 1.89 1.76 1.48 1.21 1.03 0.89 0.82 0.79 0.76 0.75 0.76 0.74 0.71 0.67
2.08 2.53 2.95 3.21 3.46 3.65 3.80 4.02 4.16 3.99 3.58 3.17 2.91 2.85 2.86 2.79 2.74 2.59 2.41 2.30 2.13 1.98 1.85 1.76 1.70 1.62 1.60 1.63 1.67 1.67 1.61 1.45 1.40 1.29 1.07 0.96 0.89 0.84 0.80 0.76 0.72 0.71 0.74
1.82 2.27 2.69 3.00 3.29 3.44 3.56 3.64 3.82 3.88 3.73 3.52 3.23 3.07 3.02 2.94 2.82 2.66 2.54 2.45 2.30 2.16 2.07 1.98 1.87 1.84 1.81 1.73 1.67 1.61 1.59 1.43 1.29 1.31 1.19 1.03 1.01 0.96 0.92 0.87 0.80 0.77 0.78
1.63 1.94 2.36 2.72 3.11 3.34 3.42 3.62 3.67 3.59 3.61 3.56 3.24 3.14 3.06 3.10 3.01 2.75 2.52 2.46 2.40 2.30 2.21 2.16 2.10 2.02 1.92 1.85 1.81 1.75 1.72 1.66 1.45 1.39 1.31 1.11 1.09 1.03 1.01 1.00 0.96 0.92 0.90

GEFSSE_prec_meanprecacc_318.txt.gz
Total_Precipitation_Accumulation
0.24 0.32 0.70 0.94 0.94 0.88 0.83 0.77 0.70 0.66 0.67 0.68 0.68 0.62 0.56 0.53 0.52 0.50 0.52 0.55 0.66 0.79 0.87 0.93 0.99 1.03 1.01 0.88 0.64 0.42 0.31 0.28 0.25 0.21 0.21 0.24 0.29 0.35 0.35 0.35 0.37 0.46 0.58
0.21 0.34 0.69 0.92 0.96 0.85 0.78 0.76 0.73 0.70 0.69 0.72 0.80 0.76 0.67 0.63 0.64 0.65 0.67 0.69 0.77 0.87 0.97 1.01 1.06 1.05 0.96 0.76 0.52 0.33 0.19 0.14 0.09 0.06 0.06 0.10 0.18 0.29 0.30 0.27 0.29 0.46 0.57
0.26 0.40 0.67 0.92 0.95 0.89 0.81 0.75 0.72 0.71 0.74 0.80 0.84 0.86 0.80 0.76 0.73 0.81 0.83 0.82 0.84 0.89 0.99 1.05 1.01 0.98 0.84 0.60 0.41 0.29 0.19 0.12 0.08 0.06 0.09 0.16 0.26 0.39 0.37 0.32 0.40 0.50 0.56
0.36 0.45 0.65 0.92 1.00 0.97 0.89 0.80 0.79 0.80 0.80 0.89 0.94 0.97 1.00 0.93 0.87 0.87 0.88 0.86 0.84 0.85 0.87 0.85 0.74 0.67 0.59 0.47 0.38 0.28 0.20 0.13 0.09 0.09 0.17 0.24 0.34 0.57 0.55 0.48 0.49 0.51 0.52
0.52 0.55 0.78 1.02 1.14 1.14 1.05 0.94 0.92 0.93 0.92 0.96 1.04 1.13 1.17 1.14 1.03 0.96 0.88 0.86 0.80 0.77 0.65 0.58 0.52 0.47 0.42 0.37 0.33 0.25 0.17 0.11 0.09 0.10 0.15 0.25 0.44 0.76 0.63 0.53 0.53 0.54 0.53
0.68 0.75 0.99 1.24 1.38 1.42 1.29 1.17 1.11 1.08 1.05 1.06 1.06 1.13 1.24 1.31 1.23 1.08 0.89 0.75 0.67 0.64 0.57 0.46 0.42 0.40 0.37 0.33 0.28 0.22 0.16 0.11 0.08 0.10 0.15 0.23 0.43 0.75 0.62 0.55 0.50 0.52 0.53
0.74 0.87 1.10 1.43 1.58 1.66 1.59 1.50 1.41 1.34 1.27 1.20 1.18 1.21 1.28 1.31 1.19 1.05 0.85 0.68 0.63 0.61 0.58 0.49 0.45 0.40 0.39 0.37 0.29 0.22 0.16 0.10 0.08 0.11 0.16 0.24 0.47 0.76 0.67 0.57 0.51 0.52 0.51
0.79 1.00 1.26 1.58 1.68 1.75 1.78 1.75 1.69 1.61 1.52 1.43 1.36 1.38 1.39 1.35 1.19 1.01 0.87 0.74 0.66 0.63 0.62 0.56 0.51 0.45 0.43 0.39 0.33 0.25 0.16 0.10 0.09 0.10 0.14 0.22 0.45 0.65 0.59 0.50 0.48 0.50 0.49
1.05 1.22 1.45 1.69 1.81 1.92 1.88 1.84 1.85 1.76 1.67 1.55 1.48 1.42 1.33 1.27 1.18 1.02 0.87 0.77 0.72 0.68 0.70 0.63 0.57 0.49 0.46 0.42 0.39 0.26 0.15 0.10 0.10 0.11 0.13 0.19 0.38 0.55 0.50 0.47 0.48 0.49 0.50
1.47 1.60 1.73 1.82 1.85 1.89 1.90 1.87 1.91 1.90 1.84 1.78 1.65 1.41 1.24 1.15 1.16 1.05 0.84 0.77 0.72 0.69 0.70 0.66 0.59 0.52 0.45 0.40 0.34 0.24 0.16 0.14 0.11 0.11 0.14 0.19 0.34 0.49 0.51 0.51 0.48 0.49 0.51
2.00 1.95 2.04 2.07 2.07 2.07 2.03 1.96 2.06 2.09 2.04 1.92 1.79 1.52 1.32 1.26 1.20 1.09 0.86 0.71 0.67 0.65 0.66 0.69 0.62 0.55 0.46 0.36 0.30 0.25 0.23 0.20 0.16 0.18 0.20 0.27 0.42 0.54 0.59 0.61 0.52 0.51 0.52
2.24 2.18 2.17 2.18 2.12 2.17 2.14 2.16 2.27 2.23 2.18 2.04 1.76 1.61 1.51 1.41 1.26 1.07 0.96 0.82 0.73 0.66 0.68 0.74 0.67 0.58 0.47 0.37 0.30 0.28 0.26 0.24 0.23 0.22 0.24 0.35 0.55 0.68 0.67 0.62 0.57 0.56 0.54
2.35 2.41 2.39 2.39 2.32 2.23 2.27 2.21 2.30 2.34 2.29 2.21 1.97 1.79 1.68 1.65 1.48 1.30 1.13 1.09 0.96 0.79 0.77 0.76 0.74 0.55 0.41 0.34 0.30 0.28 0.25 0.27 0.27 0.27 0.26 0.34 0.55 0.69 0.72 0.71 0.67 0.64 0.60
2.64 2.65 2.68 2.63 2.60 2.42 2.30 2.26 2.33 2.38 2.34 2.22 1.98 1.85 1.76 1.64 1.50 1.34 1.15 1.06 1.01 0.81 0.75 0.72 0.64 0.52 0.45 0.37 0.31 0.29 0.30 0.30 0.29 0.31 0.29 0.29 0.44 0.62 0.72 0.78 0.78 0.72 0.69
2.90 2.95 2.96 2.83 2.77 2.70 2.51 2.33 2.35 2.50 2.51 2.38 2.16 1.93 1.75 1.59 1.42 1.35 1.28 1.19 1.08 0.91 0.78 0.76 0.65 0.59 0.53 0.45 0.37 0.32 0.29 0.29 0.30 0.30 0.29 0.28 0.34 0.50 0.69 0.81 0.90 0.91 0.88
3.08 3.26 3.29 3.13 2.92 2.85 2.68 2.39 2.30 2.51 2.67 2.73 2.44 2.10 1.99 1.83 1.65 1.51 1.41 1.34 1.19 1.06 0.93 0.85 0.75 0.71 0.64 0.58 0.48 0.39 0.35 0.34 0.34 0.33 0.30 0.28 0.30 0.36 0.56 0.77 0.93 1.00 1.01
2.97 3.30 3.46 3.39 3.27 3.04 2.94 2.73 2.43 2.55 2.73 2.80 2.67 2.39 2.24 2.10 1.93 1.81 1.64 1.47 1.25 1.15 1.09 1.06 1.03 0.94 0.82 0.70 0.59 0.51 0.43 0.40 0.38 0.34 0.31 0.29 0.28 0.30 0.43 0.62 0.78 0.90 0.95
2.94 3.12 3.43 3.50 3.52 3.38 3.17 2.99 2.67 2.57 2.69 2.72 2.62 2.49 2.36 2.21 2.07 1.98 1.79 1.62 1.47 1.37 1.29 1.23 1.21 1.15 0.99 0.82 0.70 0.65 0.56 0.47 0.42 0.41 0.37 0.33 0.30 0.28 0.34 0.47 0.57 0.67 0.81
2.90 3.04 3.32 3.49 3.57 3.70 3.61 3.46 3.11 2.79 2.77 2.80 2.64 2.44 2.36 2.26 2.14 2.04 1.87 1.71 1.64 1.55 1.45 1.34 1.30 1.25 1.17 1.03 0.90 0.82 0.76 0.67 0.59 0.55 0.52 0.47 0.42 0.38 0.37 0.44 0.48 0.50 0.60
3.13 3.27 3.36 3.57 3.82 4.04 4.16 4.01 3.77 3.30 2.97 2.89 2.77 2.54 2.34 2.25 2.16 2.08 1.96 1.85 1.75 1.70 1.63 1.50 1.36 1.29 1.23 1.21 1.16 1.06 0.98 0.90 0.79 0.71 0.63 0.58 0.55 0.52 0.50 0.51 0.49 0.45 0.48
3.23 3.43 3.54 3.58 3.83 4.19 4.15 3.89 3.65 3.40 3.16 2.94 2.85 2.76 2.54 2.35 2.20 2.10 1.95 1.95 1.88 1.75 1.70 1.66 1.60 1.54 1.44 1.40 1.47 1.38 1.19 1.08 1.00 0.85 0.77 0.69 0.64 0.62 0.60 0.61 0.58 0.52 0.51
2.99 3.36 3.44 3.64 3.89 4.15 4.08 3.93 3.79 3.72 3.54 3.30 3.16 2.91 2.73 2.53 2.33 2.20 2.04 1.90 1.89 1.84 1.74 1.73 1.70 1.72 1.74 1.71 1.72 1.73 1.60 1.40 1.13 0.93 0.87 0.80 0.74 0.74 0.76 0.74 0.71 0.66 0.62
2.47 2.96 3.19 3.34 3.70 3.95 4.14 4.45 4.43 4.22 3.89 3.43 3.17 3.02 2.85 2.78 2.59 2.36 2.26 2.11 1.94 1.91 1.80 1.71 1.61 1.57 1.64 1.76 1.81 1.92 1.80 1.53 1.27 1.09 0.94 0.87 0.81 0.78 0.76 0.77 0.76 0.73 0.70
2.08 2.53 2.95 3.22 3.49 3.70 3.85 4.08 4.20 4.02 3.63 3.25 3.02 3.04 3.07 2.98 2.89 2.71 2.51 2.35 2.19 2.04 1.92 1.86 1.81 1.69 1.65 1.66 1.70 1.69 1.64 1.48 1.44 1.35 1.13 1.01 0.92 0.86 0.82 0.78 0.73 0.73 0.76
1.83 2.28 2.70 3.01 3.30 3.47 3.61 3.70 3.87 3.91 3.77 3.59 3.33 3.23 3.22 3.13 2.97 2.79 2.65 2.51 2.36 2.22 2.13 2.06 1.97 1.92 1.86 1.76 1.69 1.64 1.63 1.47 1.33 1.35 1.24 1.08 1.07 1.00 0.94 0.88 0.82 0.79 0.80
1.65 1.95 2.37 2.72 3.12 3.36 3.47 3.68 3.74 3.64 3.66 3.63 3.34 3.29 3.26 3.30 3.18 2.89 2.65 2.54 2.46 2.36 2.28 2.24 2.18 2.10 2.00 1.89 1.83 1.77 1.75 1.70 1.49 1.42 1.34 1.16 1.14 1.07 1.04 1.02 0.98 0.93 0.91

GEFSSE_prec_meanprecacc_324.txt.gz
Total_Precipitation_Accumulation
0.25 0.33 0.72 0.97 0.98 0.90 0.86 0.80 0.73 0.70 0.70 0.72 0.73 0.68 0.61 0.57 0.54 0.52 0.55 0.58 0.71 0.82 0.90 0.95 1.01 1.06 1.03 0.90 0.67 0.45 0.34 0.31 0.27 0.22 0.23 0.25 0.31 0.36 0.37 0.37 0.38 0.47 0.62
0.22 0.35 0.71 0.96 1.00 0.90 0.82 0.80 0.77 0.73 0.73 0.76 0.85 0.83 0.73 0.68 0.69 0.69 0.71 0.73 0.81 0.92 1.01 1.04 1.09 1.08 0.98 0.79 0.54 0.35 0.21 0.15 0.10 0.07 0.07 0.10 0.19 0.30 0.31 0.29 0.31 0.48 0.59
0.27 0.42 0.70 0.97 0.99 0.94 0.85 0.79 0.77 0.76 0.81 0.85 0.88 0.92 0.87 0.82 0.79 0.85 0.87 0.85 0.89 0.94 1.03 1.09 1.05 1.01 0.86 0.63 0.43 0.31 0.20 0.13 0.09 0.06 0.10 0.16 0.26 0.40 0.38 0.33 0.41 0.52 0.58
0.38 0.47 0.66 0.94 1.04 1.02 0.93 0.84 0.83 0.85 0.85 0.94 0.97 1.01 1.06 1.00 0.93 0.93 0.93 0.91 0.88 0.89 0.92 0.90 0.78 0.71 0.63 0.49 0.40 0.30 0.21 0.14 0.10 0.10 0.17 0.25 0.35 0.58 0.56 0.49 0.50 0.53 0.54
0.56 0.58 0.79 1.04 1.16 1.18 1.09 0.98 0.97 1.00 0.98 1.01 1.07 1.16 1.23 1.22 1.09 1.01 0.93 0.91 0.85 0.81 0.69 0.63 0.55 0.50 0.46 0.39 0.35 0.27 0.18 0.12 0.10 0.11 0.16 0.25 0.45 0.78 0.64 0.55 0.54 0.56 0.55
0.69 0.77 1.00 1.26 1.40 1.45 1.33 1.21 1.17 1.16 1.13 1.13 1.11 1.16 1.28 1.38 1.30 1.13 0.94 0.80 0.72 0.69 0.62 0.50 0.44 0.43 0.40 0.35 0.31 0.24 0.17 0.12 0.08 0.10 0.15 0.23 0.44 0.77 0.64 0.57 0.52 0.53 0.55
0.74 0.88 1.11 1.44 1.60 1.68 1.62 1.54 1.47 1.42 1.36 1.28 1.23 1.25 1.32 1.37 1.26 1.12 0.90 0.73 0.67 0.66 0.64 0.54 0.47 0.43 0.41 0.39 0.32 0.24 0.16 0.10 0.09 0.12 0.16 0.25 0.48 0.78 0.69 0.59 0.53 0.54 0.53
0.80 1.00 1.26 1.59 1.69 1.77 1.80 1.78 1.73 1.67 1.61 1.51 1.44 1.43 1.44 1.40 1.25 1.08 0.94 0.80 0.71 0.68 0.67 0.59 0.54 0.48 0.46 0.41 0.36 0.26 0.17 0.10 0.09 0.10 0.14 0.23 0.47 0.67 0.61 0.52 0.51 0.52 0.51
1.05 1.23 1.45 1.69 1.81 1.93 1.89 1.86 1.87 1.81 1.74 1.64 1.56 1.48 1.39 1.32 1.23 1.09 0.95 0.84 0.77 0.73 0.75 0.66 0.60 0.52 0.48 0.45 0.40 0.27 0.15 0.10 0.10 0.11 0.13 0.20 0.39 0.58 0.54 0.50 0.51 0.52 0.52
1.47 1.60 1.73 1.82 1.85 1.90 1.91 1.88 1.92 1.93 1.89 1.86 1.74 1.49 1.31 1.21 1.21 1.11 0.92 0.85 0.78 0.74 0.75 0.70 0.64 0.54 0.47 0.41 0.35 0.24 0.17 0.15 0.12 0.11 0.15 0.20 0.36 0.53 0.55 0.53 0.50 0.51 0.53
2.01 1.96 2.04 2.07 2.07 2.07 2.04 1.96 2.06 2.11 2.07 1.99 1.89 1.60 1.40 1.34 1.26 1.14 0.93 0.81 0.76 0.71 0.71 0.74 0.67 0.58 0.48 0.37 0.31 0.26 0.23 0.20 0.16 0.18 0.21 0.28 0.44 0.58 0.63 0.63 0.54 0.52 0.53
2.25 2.19 2.17 2.19 2.12 2.18 2.15 2.17 2.28 2.23 2.20 2.08 1.85 1.73 1.61 1.50 1.34 1.13 1.02 0.88 0.81 0.75 0.75 0.79 0.72 0.60 0.48 0.38 0.31 0.28 0.26 0.25 0.24 0.22 0.25 0.37 0.59 0.71 0.70 0.65 0.59 0.57 0.55
2.36 2.42 2.41 2.40 2.33 2.24 2.28 2.21 2.31 2.34 2.30 2.24 2.04 1.90 1.83 1.78 1.59 1.39 1.20 1.15 1.02 0.87 0.88 0.84 0.80 0.58 0.43 0.35 0.31 0.28 0.26 0.27 0.28 0.27 0.27 0.36 0.59 0.74 0.75 0.74 0.70 0.65 0.62
2.66 2.66 2.69 2.65 2.61 2.43 2.31 2.26 2.33 2.39 2.35 2.25 2.05 1.94 1.88 1.79 1.66 1.46 1.24 1.12 1.07 0.89 0.87 0.84 0.69 0.54 0.46 0.38 0.32 0.30 0.30 0.30 0.29 0.32 0.31 0.32 0.48 0.67 0.76 0.81 0.80 0.73 0.70
2.92 2.97 2.98 2.85 2.79 2.72 2.52 2.33 2.35 2.50 2.51 2.41 2.23 2.03 1.85 1.71 1.58 1.52 1.41 1.28 1.16 1.01 0.88 0.84 0.71 0.62 0.55 0.47 0.38 0.32 0.30 0.30 0.31 0.31 0.31 0.31 0.38 0.54 0.73 0.84 0.92 0.93 0.90
3.11 3.28 3.31 3.14 2.93 2.86 2.69 2.40 2.31 2.52 2.67 2.75 2.48 2.18 2.10 1.93 1.78 1.67 1.56 1.46 1.31 1.17 1.03 0.92 0.80 0.75 0.68 0.60 0.49 0.40 0.35 0.34 0.36 0.34 0.31 0.31 0.33 0.40 0.59 0.80 0.96 1.02 1.04
2.99 3.33 3.48 3.41 3.29 3.06 2.96 2.74 2.44 2.56 2.73 2.82 2.72 2.45 2.35 2.22 2.05 1.96 1.79 1.59 1.36 1.25 1.18 1.13 1.09 1.00 0.88 0.73 0.61 0.52 0.43 0.40 0.39 0.35 0.32 0.31 0.30 0.33 0.45 0.65 0.81 0.93 0.98
2.95 3.14 3.46 3.53 3.55 3.41 3.20 3.01 2.68 2.58 2.70 2.74 2.66 2.55 2.44 2.34 2.21 2.14 1.96 1.76 1.60 1.49 1.39 1.30 1.27 1.20 1.05 0.86 0.72 0.66 0.57 0.48 0.43 0.42 0.38 0.35 0.33 0.30 0.35 0.48 0.58 0.69 0.84
2.92 3.06 3.34 3.52 3.61 3.72 3.63 3.49 3.13 2.80 2.79 2.81 2.69 2.52 2.44 2.37 2.29 2.19 2.04 1.86 1.78 1.69 1.56 1.42 1.36 1.29 1.22 1.07 0.92 0.83 0.77 0.67 0.61 0.58 0.54 0.50 0.46 0.41 0.39 0.45 0.49 0.52 0.64
3.16 3.30 3.39 3.60 3.85 4.07 4.19 4.05 3.81 3.32 2.98 2.90 2.80 2.62 2.45 2.36 2.30 2.23 2.12 2.00 1.87 1.82 1.74 1.59 1.44 1.34 1.28 1.25 1.19 1.07 0.98 0.90 0.80 0.74 0.67 0.61 0.59 0.56 0.53 0.53 0.50 0.47 0.51
3.25 3.46 3.57 3.61 3.86 4.21 4.17 3.93 3.71 3.44 3.17 2.94 2.86 2.80 2.60 2.44 2.32 2.24 2.12 2.12 2.01 1.86 1.78 1.75 1.69 1.62 1.50 1.45 1.50 1.40 1.20 1.09 1.01 0.87 0.80 0.73 0.67 0.66 0.64 0.65 0.61 0.54 0.53
3.01 3.38 3.45 3.66 3.91 4.16 4.09 3.95 3.83 3.77 3.58 3.31 3.16 2.92 2.75 2.60 2.42 2.32 2.21 2.08 2.05 1.96 1.83 1.79 1.77 1.81 1.83 1.78 1.77 1.76 1.62 1.43 1.15 0.95 0.89 0.84 0.77 0.78 0.79 0.78 0.76 0.70 0.65
2.49 2.97 3.20 3.35 3.72 3.96 4.15 4.47 4.46 4.26 3.93 3.46 3.18 3.03 2.87 2.83 2.69 2.47 2.40 2.26 2.08 2.01 1.90 1.77 1.67 1.64 1.72 1.83 1.86 1.95 1.82 1.54 1.29 1.11 0.97 0.90 0.85 0.81 0.79 0.81 0.80 0.78 0.75
2.13 2.56 2.97 3.24 3.50 3.71 3.86 4.09 4.22 4.06 3.66 3.28 3.05 3.05 3.09 3.02 2.98 2.83 2.65 2.49 2.31 2.14 2.01 1.93 1.87 1.75 1.71 1.72 1.75 1.73 1.66 1.49 1.45 1.36 1.15 1.04 0.96 0.90 0.85 0.81 0.77 0.77 0.81
1.88 2.32 2.72 3.03 3.32 3.48 3.62 3.71 3.88 3.94 3.80 3.61 3.36 3.25 3.24 3.16 3.05 2.91 2.81 2.66 2.47 2.32 2.21 2.12 2.03 1.98 1.93 1.83 1.74 1.67 1.65 1.48 1.34 1.36 1.26 1.11 1.10 1.03 0.97 0.92 0.84 0.82 0.84
1.72 1.99 2.39 2.75 3.13 3.37 3.48 3.68 3.75 3.66 3.68 3.65 3.36 3.31 3.29 3.34 3.24 3.00 2.81 2.70 2.58 2.46 2.35 2.30 2.24 2.15 2.06 1.96 1.89 1.81 1.77 1.71 1.51 1.44 1.35 1.17 1.17 1.11 1.08 1.06 1.01 0.96 0.94

GEFSSE_prec_meanprecacc_330.txt.gz
Total_Precipitation_Accumulation
0.26 0.34 0.75 1.03 1.03 0.94 0.89 0.84 0.77 0.74 0.74 0.75 0.76 0.72 0.65 0.61 0.58 0.56 0.60 0.64 0.77 0.89 0.95 0.99 1.05 1.09 1.07 0.93 0.71 0.49 0.37 0.34 0.30 0.24 0.25 0.28 0.33 0.39 0.38 0.38 0.40 0.49 0.65
0.24 0.38 0.76 1.03 1.08 0.95 0.86 0.84 0.80 0.77 0.77 0.80 0.91 0.89 0.79 0.73 0.74 0.74 0.76 0.79 0.87 0.99 1.08 1.11 1.12 1.12 1.03 0.83 0.59 0.39 0.22 0.17 0.13 0.08 0.08 0.11 0.21 0.31 0.33 0.30 0.32 0.50 0.62
0.29 0.45 0.75 1.02 1.08 1.00 0.90 0.84 0.81 0.80 0.86 0.89 0.93 0.97 0.93 0.88 0.86 0.92 0.95 0.93 0.96 1.00 1.10 1.16 1.10 1.06 0.91 0.68 0.48 0.33 0.21 0.14 0.10 0.07 0.10 0.17 0.27 0.42 0.40 0.34 0.42 0.53 0.60
0.39 0.49 0.68 0.98 1.11 1.09 1.00 0.90 0.88 0.91 0.90 0.99 1.01 1.05 1.11 1.05 0.99 1.01 1.01 0.99 0.95 0.95 0.98 0.96 0.83 0.77 0.68 0.54 0.44 0.32 0.22 0.15 0.11 0.10 0.17 0.25 0.36 0.60 0.58 0.50 0.52 0.54 0.56
0.57 0.59 0.81 1.07 1.22 1.23 1.14 1.02 1.02 1.04 1.03 1.06 1.12 1.21 1.27 1.26 1.13 1.05 0.99 0.98 0.92 0.86 0.74 0.69 0.62 0.55 0.50 0.43 0.38 0.29 0.20 0.13 0.10 0.11 0.16 0.26 0.45 0.80 0.66 0.57 0.56 0.57 0.56
0.70 0.79 1.02 1.29 1.44 1.49 1.36 1.24 1.20 1.20 1.17 1.17 1.16 1.21 1.33 1.42 1.35 1.18 0.99 0.85 0.78 0.74 0.67 0.56 0.52 0.49 0.45 0.39 0.33 0.26 0.18 0.13 0.08 0.11 0.15 0.23 0.44 0.79 0.66 0.59 0.53 0.54 0.56
0.75 0.89 1.13 1.46 1.63 1.73 1.66 1.56 1.49 1.45 1.40 1.32 1.28 1.29 1.37 1.42 1.31 1.16 0.94 0.78 0.72 0.71 0.69 0.58 0.53 0.49 0.47 0.43 0.36 0.27 0.17 0.11 0.09 0.12 0.16 0.25 0.49 0.81 0.71 0.62 0.55 0.56 0.54
0.80 1.01 1.27 1.61 1.72 1.80 1.83 1.80 1.76 1.70 1.64 1.55 1.48 1.46 1.48 1.45 1.29 1.12 0.98 0.84 0.75 0.73 0.73 0.64 0.58 0.52 0.49 0.44 0.38 0.30 0.18 0.11 0.09 0.11 0.15 0.23 0.49 0.71 0.64 0.55 0.54 0.55 0.53
1.05 1.23 1.45 1.70 1.83 1.95 1.92 1.88 1.90 1.83 1.76 1.67 1.60 1.51 1.41 1.34 1.26 1.12 0.98 0.88 0.81 0.77 0.79 0.72 0.63 0.54 0.51 0.47 0.42 0.28 0.16 0.11 0.10 0.12 0.13 0.20 0.41 0.62 0.57 0.53 0.53 0.54 0.54
1.48 1.61 1.73 1.83 1.86 1.91 1.92 1.89 1.94 1.94 1.90 1.88 1.76 1.51 1.34 1.24 1.24 1.14 0.95 0.88 0.81 0.78 0.79 0.75 0.69 0.58 0.50 0.43 0.36 0.25 0.18 0.16 0.12 0.11 0.15 0.21 0.38 0.57 0.58 0.56 0.53 0.53 0.55
2.03 1.97 2.05 2.08 2.09 2.08 2.05 1.97 2.07 2.11 2.08 2.00 1.91 1.63 1.42 1.36 1.29 1.17 0.97 0.85 0.80 0.75 0.75 0.79 0.72 0.63 0.52 0.39 0.31 0.26 0.24 0.21 0.17 0.20 0.22 0.30 0.47 0.61 0.66 0.67 0.57 0.54 0.55
2.28 2.21 2.19 2.20 2.14 2.19 2.16 2.18 2.28 2.24 2.20 2.09 1.85 1.76 1.65 1.53 1.37 1.17 1.06 0.92 0.85 0.79 0.79 0.84 0.78 0.65 0.52 0.40 0.32 0.29 0.26 0.25 0.24 0.23 0.26 0.40 0.62 0.74 0.73 0.68 0.62 0.59 0.56
2.38 2.44 2.43 2.41 2.34 2.26 2.30 2.23 2.31 2.35 2.31 2.25 2.04 1.91 1.88 1.85 1.64 1.44 1.25 1.20 1.07 0.92 0.92 0.89 0.86 0.63 0.46 0.37 0.32 0.28 0.26 0.27 0.29 0.28 0.28 0.39 0.63 0.78 0.79 0.77 0.73 0.68 0.63
2.68 2.68 2.72 2.67 2.63 2.45 2.34 2.29 2.35 2.39 2.35 2.25 2.05 1.94 1.90 1.84 1.74 1.55 1.32 1.18 1.13 0.94 0.91 0.88 0.75 0.60 0.51 0.41 0.34 0.31 0.31 0.31 0.30 0.32 0.31 0.34 0.53 0.72 0.81 0.85 0.83 0.76 0.73
2.94 2.99 3.01 2.88 2.82 2.74 2.54 2.36 2.38 2.52 2.52 2.41 2.23 2.04 1.88 1.74 1.63 1.58 1.51 1.38 1.24 1.08 0.94 0.89 0.77 0.69 0.60 0.51 0.41 0.34 0.31 0.30 0.31 0.31 0.31 0.32 0.42 0.60 0.78 0.88 0.96 0.97 0.94
3.12 3.30 3.33 3.17 2.96 2.88 2.71 2.42 2.33 2.53 2.68 2.75 2.48 2.19 2.13 1.97 1.83 1.71 1.62 1.54 1.39 1.25 1.11 0.99 0.87 0.82 0.75 0.65 0.53 0.43 0.37 0.36 0.36 0.34 0.32 0.32 0.36 0.45 0.65 0.85 1.01 1.07 1.08
3.01 3.34 3.50 3.43 3.31 3.08 2.99 2.77 2.46 2.58 2.74 2.83 2.72 2.46 2.38 2.27 2.10 2.00 1.84 1.66 1.43 1.32 1.28 1.22 1.16 1.08 0.98 0.81 0.67 0.55 0.46 0.42 0.40 0.36 0.33 0.32 0.32 0.36 0.50 0.70 0.86 0.98 1.02
2.97 3.16 3.47 3.54 3.57 3.43 3.22 3.03 2.69 2.60 2.72 2.75 2.67 2.57 2.47 2.38 2.26 2.17 2.00 1.81 1.66 1.55 1.47 1.40 1.34 1.27 1.14 0.96 0.80 0.71 0.59 0.50 0.44 0.43 0.39 0.36 0.35 0.33 0.39 0.53 0.62 0.72 0.87
2.93 3.07 3.35 3.53 3.63 3.74 3.65 3.51 3.15 2.82 2.81 2.83 2.71 2.54 2.47 2.42 2.34 2.22 2.08 1.92 1.84 1.76 1.64 1.51 1.45 1.38 1.28 1.13 0.99 0.88 0.81 0.70 0.62 0.59 0.54 0.51 0.48 0.46 0.43 0.49 0.51 0.54 0.66
3.16 3.30 3.40 3.62 3.87 4.11 4.23 4.08 3.84 3.35 3.01 2.93 2.83 2.65 2.48 2.42 2.36 2.27 2.15 2.05 1.94 1.90 1.82 1.69 1.54 1.44 1.36 1.32 1.24 1.12 1.02 0.92 0.81 0.74 0.68 0.61 0.61 0.61 0.59 0.56 0.51 0.48 0.52
3.26 3.46 3.58 3.63 3.88 4.23 4.20 3.96 3.74 3.47 3.20 2.97 2.88 2.84 2.65 2.50 2.38 2.29 2.15 2.16 2.07 1.93 1.86 1.84 1.80 1.75 1.61 1.54 1.57 1.46 1.24 1.12 1.03 0.88 0.81 0.73 0.68 0.70 0.71 0.68 0.62 0.55 0.54
3.02 3.39 3.47 3.67 3.92 4.19 4.12 3.98 3.86 3.80 3.61 3.34 3.18 2.94 2.78 2.64 2.47 2.36 2.25 2.12 2.10 2.03 1.91 1.87 1.86 1.93 1.97 1.90 1.86 1.83 1.68 1.48 1.19 0.97 0.91 0.84 0.79 0.80 0.83 0.81 0.77 0.72 0.67
2.50 2.98 3.21 3.37 3.73 3.99 4.17 4.50 4.49 4.29 3.95 3.50 3.21 3.05 2.88 2.85 2.72 2.50 2.44 2.30 2.14 2.07 1.98 1.86 1.75 1.73 1.84 1.95 1.95 2.04 1.88 1.59 1.33 1.14 0.99 0.91 0.86 0.82 0.81 0.82 0.82 0.80 0.77
2.13 2.56 2.98 3.24 3.52 3.73 3.88 4.11 4.25 4.08 3.68 3.30 3.09 3.07 3.10 3.03 2.99 2.84 2.67 2.52 2.37 2.20 2.06 2.00 1.95 1.83 1.80 1.83 1.85 1.80 1.72 1.53 1.48 1.39 1.17 1.05 0.97 0.91 0.87 0.83 0.78 0.79 0.85
1.89 2.32 2.73 3.04 3.33 3.50 3.64 3.74 3.91 3.96 3.81 3.63 3.38 3.28 3.27 3.17 3.05 2.93 2.83 2.69 2.51 2.38 2.25 2.17 2.09 2.05 2.00 1.90 1.84 1.75 1.70 1.52 1.36 1.38 1.27 1.13 1.11 1.04 0.98 0.92 0.86 0.84 0.87
1.72 2.00 2.40 2.76 3.15 3.38 3.50 3.71 3.77 3.68 3.70 3.67 3.38 3.33 3.32 3.37 3.26 3.02 2.82 2.73 2.61 2.51 2.40 2.34 2.28 2.21 2.12 2.02 1.95 1.87 1.83 1.76 1.53 1.45 1.36 1.19 1.18 1.12 1.08 1.06 1.02 0.98 0.96